Theta_e
336 337 339 342 344 347 347 346 345 346 346 347 346 346 347 345 345 343 345 344 346 345 343 341 341 341 341 341 341 341 341 340 340 340 340 340 340 339 338 338 338 338 338 338 339 340 342 344 342 342 343 343 341 340 339 338 337 336 335 334 335 335 334 332 332 332 330 329 329 331 332 333 334 333 330 332 330 334 333 332 332 330 328 329 331
336 338 341 343 344 345 347 345 345 346 346 346 346 345 346 346 346 345 346 344 343 342 341 341 342 342 342 342 342 341 341 341 341 340 340 340 339 338 338 338 338 338 337 337 337 338 338 338 339 340 342 341 341 340 338 336 336 335 335 334 333 334 334 332 332 332 332 331 332 332 332 332 332 331 333 335 335 337 333 331 330 328 323 333 331
338 339 340 342 345 345 347 346 345 345 346 346 345 345 345 345 345 345 344 343 342 342 342 343 343 343 343 343 342 342 341 341 341 340 340 340 340 339 339 338 338 337 337 337 336 337 337 337 337 337 336 336 337 339 338 335 334 334 334 334 334 333 333 332 332 331 331 331 332 334 333 333 333 333 334 335 334 338 332 330 330 332 325 330 331
337 337 339 343 345 346 346 343 345 345 346 345 345 345 345 345 344 343 343 343 342 342 342 343 343 342 342 341 341 340 340 340 340 340 340 339 339 339 338 338 337 336 336 336 336 335 335 336 336 336 335 334 334 333 334 333 333 332 332 332 331 330 330 331 331 330 331 332 334 334 329 321 323 330 336 336 335 334 332 330 330 330 330 330 331
338 339 340 341 342 345 345 345 346 346 346 346 345 344 345 344 344 344 343 342 342 342 342 342 342 342 342 341 340 340 340 339 339 340 339 339 339 338 338 338 338 336 336 336 335 335 334 335 335 334 334 334 333 333 332 331 330 330 330 330 330 330 331 332 332 331 332 334 334 332 320 320 318 327 332 333 331 331 330 329 329 328 329 332 333
338 339 340 341 342 343 344 344 344 345 345 345 344 344 344 345 344 344 343 342 342 342 342 342 341 342 341 341 341 340 339 339 339 339 339 339 338 338 338 337 337 337 336 335 336 336 336 335 335 335 335 336 335 333 332 332 333 332 332 332 331 330 331 332 332 332 333 334 333 323 320 318 318 322 330 332 333 330 329 330 330 330 330 334 334
340 340 340 340 341 343 343 344 345 345 345 344 343 343 343 343 344 344 343 343 342 342 342 342 341 341 341 341 341 340 339 339 339 339 339 339 339 338 338 338 338 339 338 338 339 339 339 339 338 338 338 338 339 338 337 334 333 333 333 333 333 333 331 332 332 333 333 332 322 320 319 318 317 319 328 329 331 331 331 331 330 331 332 331 332
339 339 339 339 340 342 343 343 343 344 343 343 343 343 342 344 343 343 343 342 342 342 342 341 340 340 340 340 340 340 341 340 340 340 339 339 339 339 339 339 339 339 339 340 339 339 339 337 338 338 338 338 337 338 337 336 337 337 336 337 336 336 335 333 333 333 334 326 321 321 319 317 318 318 328 327 327 330 330 332 333 333 331 331 330
336 337 338 338 340 342 342 342 342 344 342 342 343 343 343 343 342 342 341 341 341 341 342 341 341 341 341 341 340 340 339 340 340 339 339 340 339 339 339 339 339 339 338 338 338 338 338 338 337 337 337 337 337 337 336 337 336 336 336 336 336 336 335 335 334 334 331 324 322 320 319 318 318 317 328 330 330 327 330 331 331 331 330 329 329
336 337 338 338 339 340 341 342 342 344 343 343 342 343 342 342 342 342 341 342 342 342 341 341 340 340 338 338 338 339 338 338 339 339 339 338 338 338 338 338 337 337 336 337 337 337 337 337 336 336 336 335 335 334 334 334 335 335 336 336 337 336 336 335 334 333 327 324 322 321 321 330 325 321 324 330 331 327 328 329 331 332 332 329 330
334 335 336 337 337 339 340 341 342 342 344 343 344 343 342 341 342 342 340 342 342 341 340 340 339 339 339 338 338 338 338 338 338 338 338 338 337 337 337 337 337 336 336 336 336 336 335 336 335 335 335 335 335 334 333 334 335 335 335 335 335 335 335 335 335 325 325 323 323 322 325 330 325 321 329 330 332 331 334 330 330 330 330 330 331
332 332 333 335 337 336 337 340 341 341 343 342 342 341 341 340 341 341 341 341 340 340 340 340 339 338 339 338 338 338 338 336 335 336 337 338 338 337 338 337 337 336 335 335 336 335 335 335 334 335 334 335 334 333 333 333 334 335 335 335 334 335 335 335 331 325 323 323 323 325 323 323 321 322 333 332 332 333 333 332 332 332 332 332 331
332 332 332 332 332 333 334 335 338 340 340 341 340 340 340 340 340 340 340 340 339 339 339 339 339 339 339 339 338 338 336 334 333 333 334 335 337 337 337 337 337 336 336 336 336 335 335 334 335 334 334 334 335 335 334 333 335 335 334 334 333 333 333 333 327 325 324 323 323 324 323 322 322 332 335 333 333 335 335 332 332 331 332 332 332
325 331 332 332 331 331 331 331 332 334 336 337 338 339 339 338 338 338 338 338 338 336 335 335 336 337 338 338 338 337 335 333 331 330 330 331 333 336 336 334 334 335 335 335 336 335 335 335 335 335 335 335 335 335 334 332 333 334 334 334 334 333 333 331 330 325 324 323 325 325 324 325 323 333 335 335 335 335 334 333 332 332 333 335 335
321 323 326 329 330 329 329 328 329 329 330 331 333 334 334 334 334 333 333 333 332 332 333 334 335 336 337 336 336 336 335 333 328 327 326 326 328 330 330 332 333 334 335 334 333 333 333 333 333 332 331 331 327 325 326 327 328 327 325 326 328 330 331 327 326 323 323 324 324 325 324 324 331 336 336 335 334 335 334 333 333 334 335 335 335
317 318 321 322 325 327 326 327 326 326 325 326 327 328 329 329 329 330 329 329 329 329 329 331 333 335 334 331 331 330 331 331 326 324 323 322 323 324 326 329 330 331 330 330 330 329 327 326 327 326 324 322 321 322 323 323 324 323 323 324 324 326 327 328 324 323 322 322 322 324 325 325 334 337 336 335 334 334 334 334 335 335 335 335 335
313 314 314 316 318 319 321 322 322 322 323 323 323 324 325 325 325 326 326 326 326 325 326 326 328 329 329 327 328 328 326 324 323 322 320 319 320 321 323 326 326 326 326 326 325 324 322 322 322 321 320 319 319 319 320 320 319 318 319 319 319 320 320 324 321 321 322 323 324 324 324 325 331 336 335 334 334 334 334 335 335 334 335 335 334
309 310 310 311 313 315 316 317 316 316 314 316 318 320 321 322 321 322 322 322 322 322 322 322 323 324 325 324 324 324 323 321 320 319 317 316 317 318 319 322 322 322 322 322 321 320 320 319 318 318 317 317 315 316 316 317 317 315 315 315 315 315 316 318 315 318 320 324 322 323 323 330 334 334 334 334 335 334 335 334 334 335 334 336 336
306 307 308 309 309 311 313 313 313 312 311 310 310 313 316 317 318 318 318 319 319 318 318 318 318 319 321 320 319 319 318 317 316 315 314 314 315 315 316 317 319 319 319 318 318 317 318 317 316 315 315 314 313 313 313 314 314 313 312 311 312 311 312 311 310 314 317 319 322 323 323 333 333 333 334 334 334 333 333 334 334 333 334 334 334
305 305 306 308 308 308 309 311 311 311 310 308 308 308 312 313 314 315 315 315 315 315 314 314 314 316 316 316 315 313 313 311 313 309 311 311 312 311 313 314 315 315 315 315 314 315 315 315 315 314 313 312 311 310 310 311 311 311 310 309 308 307 302 304 306 309 313 319 325 322 330 331 332 332 332 332 333 334 334 332 333 332 333 333 332
303 303 304 306 307 306 306 308 310 309 308 308 307 307 309 309 308 311 311 312 312 311 311 310 310 311 312 311 310 307 306 305 306 304 307 306 309 309 310 311 312 312 312 313 313 312 312 312 312 312 311 310 308 306 306 307 308 309 307 305 304 297 299 301 303 307 311 318 323 322 328 328 329 330 329 329 330 330 330 330 330 331 331 331 331
300 301 303 304 304 304 305 306 307 307 307 308 307 306 306 306 303 303 306 306 308 307 306 305 308 304 308 306 304 305 302 303 304 307 302 304 304 307 307 308 309 309 309 310 310 310 310 311 310 309 309 307 305 296 297 301 304 306 304 302 295 295 296 298 300 303 308 315 320 322 325 324 325 325 325 325 326 325 325 325 326 328 327 327 329
300 300 301 303 304 304 304 304 305 305 304 304 305 304 302 302 301 301 302 304 304 303 301 302 301 302 303 302 303 301 300 301 303 305 304 303 302 305 305 305 306 307 306 306 306 307 307 307 307 306 305 304 296 294 294 293 294 302 301 295 292 293 294 295 297 300 304 309 315 322 319 318 319 320 321 322 322 321 320 321 322 323 323 324 324
300 300 300 302 302 302 302 302 303 302 302 302 302 301 301 300 299 299 299 299 299 300 299 299 299 300 301 300 300 301 299 298 303 304 302 297 297 301 302 302 302 303 303 299 301 302 302 302 303 303 300 297 293 293 294 293 293 293 293 293 292 292 292 293 294 296 299 304 307 314 317 316 316 317 319 320 320 319 318 319 320 320 320 321 321
300 300 300 299 299 300 301 300 301 301 300 300 300 300 299 299 299 298 297 297 297 297 298 298 298 298 299 299 298 299 298 297 296 296 296 296 295 295 295 294 295 294 300 293 293 294 294 293 293 295 292 293 292 292 293 293 293 293 292 292 291 291 291 291 292 293 295 298 302 308 310 313 315 314 316 318 318 317 316 317 317 317 318 318 318
302 299 299 299 298 299 300 300 299 299 299 298 298 301 298 297 298 298 296 296 297 296 296 296 297 297 298 299 298 296 296 296 295 295 295 294 294 294 294 294 294 294 296 292 293 292 291 291 292 292 292 292 291 291 292 293 291 292 291 291 291 291 290 290 290 292 293 295 297 305 307 308 310 314 314 315 316 316 315 315 316 316 317 317 316
300 299 299 299 299 298 298 299 298 297 297 297 297 296 296 296 297 299 296 295 295 294 295 295 296 296 297 298 296 295 295 294 294 294 293 293 293 293 293 293 293 293 294 292 292 292 291 291 291 291 291 291 291 291 292 291 291 291 291 291 291 290 290 290 290 290 291 293 297 303 305 307 308 311 313 313 314 314 314 313 314 315 316 316 316
299 299 299 298 298 297 297 297 298 297 296 296 295 295 295 295 297 298 296 299 295 294 293 294 295 295 296 296 297 294 294 293 293 293 292 292 292 292 292 292 292 292 293 292 291 291 290 290 291 291 291 290 290 290 291 291 290 290 290 290 290 290 289 289 289 289 290 291 292 298 302 305 307 309 310 313 313 313 313 313 312 313 314 314 315
297 298 298 297 297 298 296 296 296 296 296 295 295 294 294 294 294 294 295 299 293 294 293 293 293 294 294 295 296 293 293 292 292 291 291 291 291 291 291 291 291 291 292 291 291 290 289 289 289 290 290 289 289 289 291 290 290 289 289 290 290 290 289 289 289 289 289 290 291 294 301 302 304 307 308 311 312 311 311 311 311 311 312 313 312
296 297 296 296 297 296 296 295 297 296 296 295 294 294 294 293 294 293 294 296 292 294 293 293 293 293 293 293 295 294 292 291 291 290 290 290 290 290 290 290 290 291 291 290 290 289 289 289 289 289 289 289 288 289 290 289 289 289 289 289 289 289 289 289 289 289 289 290 290 292 298 300 301 303 307 309 310 310 310 310 310 310 311 312 312
296 295 295 295 298 295 295 295 296 299 295 295 295 294 294 293 295 293 293 293 292 293 292 292 292 292 293 293 293 294 293 292 291 291 290 290 290 290 289 289 289 290 290 290 290 290 289 288 288 288 288 288 288 288 288 288 287 287 288 288 288 289 289 289 289 289 289 289 290 291 292 297 299 301 304 307 310 309 308 308 309 309 310 310 312
294 294 295 296 296 296 295 296 295 297 296 294 296 294 293 294 294 293 293 293 294 291 291 292 294 292 292 292 292 292 294 291 291 291 291 289 289 289 289 289 288 289 290 289 289 289 289 289 288 289 288 288 287 287 288 287 286 286 287 287 288 288 288 288 288 288 288 289 289 289 288 291 297 299 302 304 308 307 307 307 308 308 309 310 311
294 295 295 295 295 296 297 296 295 295 294 293 293 293 294 293 293 293 294 294 292 291 291 292 291 291 291 292 292 293 292 291 290 291 292 289 289 289 288 290 289 289 289 289 289 288 288 287 288 289 288 288 287 286 288 287 285 286 286 287 287 288 288 288 288 288 288 288 288 288 287 289 290 297 299 302 306 307 306 306 307 307 309 310 311
294 293 294 294 297 297 298 298 297 296 297 295 294 293 293 295 294 292 295 292 290 290 293 290 292 291 290 290 291 292 291 290 290 289 289 288 288 288 288 288 288 289 289 289 288 287 287 287 287 287 290 287 286 286 286 286 286 285 286 286 287 287 287 287 288 288 288 288 288 287 288 288 289 289 292 299 304 306 305 305 305 306 307 309 310
293 292 294 293 294 294 298 294 298 293 294 293 294 295 294 293 292 291 292 292 291 290 290 290 289 290 290 289 291 293 290 290 290 289 288 288 287 287 287 287 289 289 287 288 288 287 287 287 287 286 286 286 286 287 286 285 285 285 286 287 287 287 287 287 287 287 287 287 287 287 288 288 288 289 291 291 298 300 302 302 304 305 306 307 307
292 293 293 293 292 293 295 293 293 293 293 296 293 293 292 292 295 298 291 291 290 290 289 289 289 289 289 288 289 293 290 289 289 289 288 288 287 287 287 288 288 289 288 287 288 287 287 287 287 286 285 285 286 285 285 285 285 286 286 286 287 288 287 287 287 287 287 287 287 287 287 287 288 289 295 290 289 293 299 300 302 304 305 305 305
291 291 292 291 292 292 294 292 291 292 292 292 292 291 291 291 291 292 291 290 289 289 289 289 289 288 288 288 289 292 290 288 289 289 288 288 288 288 287 287 288 287 287 287 286 288 286 287 286 287 285 285 285 285 285 285 285 286 286 286 286 287 286 287 287 287 288 286 286 286 287 287 290 294 287 287 287 288 292 297 299 301 302 302 303
291 292 292 292 292 292 293 295 290 291 291 292 292 291 292 291 290 290 295 289 289 288 289 289 289 288 287 288 289 290 292 289 288 289 288 289 290 288 287 287 288 287 287 286 286 286 286 285 285 285 286 285 285 285 285 285 286 286 286 286 286 286 286 286 287 290 286 286 286 286 286 288 287 286 287 286 286 286 287 290 296 297 298 299 301
289 289 289 290 290 291 291 291 291 290 290 290 292 290 290 291 289 289 290 291 288 289 289 287 288 287 287 288 290 291 291 290 289 289 288 288 288 287 288 287 287 287 287 286 285 286 286 285 285 285 286 286 285 285 285 285 285 286 285 286 286 286 286 286 287 287 286 286 287 290 288 286 286 287 286 286 286 286 286 286 286 287 288 296 299
288 290 291 289 289 289 289 289 289 290 290 290 291 289 288 290 288 289 287 288 287 291 290 288 287 286 290 290 288 288 289 291 289 289 288 289 287 288 288 288 287 287 286 286 285 284 285 285 285 286 285 285 286 285 285 285 285 284 285 286 286 286 285 286 286 286 287 286 285 286 286 288 287 286 286 286 286 286 287 287 289 288 288 291 296
288 288 289 289 288 290 289 288 289 290 289 288 290 288 287 287 287 287 287 286 288 290 288 287 288 287 289 289 289 289 289 288 290 289 288 289 290 288 287 287 286 288 287 286 286 286 287 287 286 285 285 284 284 285 285 285 283 284 285 285 285 285 287 287 286 286 285 285 284 286 287 286 286 286 286 286 286 287 287 287 287 287 287 287 289
288 288 288 288 288 289 288 289 288 289 289 288 289 289 288 287 287 287 286 286 286 285 285 287 287 291 290 289 289 289 288 288 290 289 291 288 288 287 287 287 286 286 287 288 287 290 287 285 285 283 284 284 283 284 286 284 283 282 281 282 283 283 285 286 285 285 285 285 286 287 286 285 285 286 286 286 286 287 287 287 287 287 287 287 287
287 287 287 288 287 288 288 290 289 289 289 292 287 288 287 288 287 286 287 285 286 287 286 288 289 289 288 288 288 288 288 288 288 289 289 289 288 287 287 287 287 288 287 286 285 285 285 285 284 283 283 283 284 285 285 284 282 283 283 282 280 280 283 283 283 283 285 286 286 285 286 285 285 286 286 286 286 286 286 287 286 286 287 287 287
289 288 287 286 286 293 287 287 288 288 287 289 295 289 290 291 289 288 287 286 287 288 287 286 286 286 287 288 288 288 288 288 288 288 289 288 287 287 287 286 287 287 286 285 285 285 285 285 285 285 284 282 282 281 286 284 283 283 280 280 280 280 278 279 281 284 285 285 285 284 284 285 285 286 286 285 285 286 286 286 286 286 287 287 287
287 287 287 286 288 287 287 287 287 287 286 291 290 289 290 286 286 286 285 284 284 283 283 284 284 288 290 287 287 287 287 288 288 288 289 288 288 287 287 287 287 287 287 285 285 285 285 285 285 284 283 283 282 282 282 285 283 285 283 280 279 278 278 280 281 282 283 282 282 284 286 286 285 285 285 285 285 285 285 285 286 286 286 286 286
286 287 287 287 287 287 287 286 286 286 286 286 287 289 288 287 284 284 283 282 283 282 282 283 284 285 285 287 287 287 287 287 287 287 287 289 288 288 287 287 287 287 287 286 286 285 285 285 285 285 284 284 283 282 282 284 285 285 284 284 282 279 279 281 280 277 282 283 285 284 284 285 284 284 285 284 284 285 287 286 286 286 286 286 286
287 286 287 287 287 287 286 286 286 286 287 287 287 291 286 285 284 284 283 283 282 283 283 284 284 286 286 286 287 287 287 287 287 287 287 288 288 287 287 287 287 287 288 287 286 286 286 286 287 285 285 286 284 282 283 283 283 283 284 284 284 285 284 281 278 280 277 281 282 282 283 282 283 284 284 284 285 286 286 286 286 286 286 286 286
287 286 287 287 287 287 287 286 286 290 288 287 287 288 286 285 284 283 286 284 283 284 285 285 285 287 287 287 286 287 287 287 287 287 287 287 288 288 288 287 287 287 288 287 286 286 287 287 287 286 285 285 284 283 283 283 282 283 284 283 283 284 283 283 282 280 279 277 279 282 282 282 282 282 284 285 285 285 285 286 286 286 286 286 286
286 287 287 287 287 286 287 286 286 286 287 286 289 286 289 287 285 285 284 286 286 286 286 287 286 286 284 286 286 286 286 287 287 286 286 287 289 288 287 286 286 287 289 288 287 287 286 286 286 285 285 285 285 285 284 283 283 283 283 283 283 282 282 283 282 282 279 278 278 279 280 283 284 284 285 285 285 286 286 285 286 286 286 286 285
287 288 287 286 286 285 286 287 286 286 286 285 286 287 286 288 287 285 284 285 285 285 283 284 284 284 284 285 285 285 285 286 286 286 286 287 286 287 287 287 286 287 290 288 287 286 286 285 285 285 285 284 285 284 284 284 284 284 283 283 282 282 282 281 280 280 281 281 278 278 280 280 279 281 284 284 285 285 285 285 284 284 284 284 285
286 286 286 286 285 285 285 285 286 286 286 286 285 285 285 284 285 285 285 285 285 284 283 284 284 284 284 285 285 285 285 285 285 286 286 287 286 288 287 287 288 289 289 286 286 286 286 285 286 285 285 285 285 285 285 284 284 284 283 283 282 282 281 280 280 281 280 279 279 279 280 281 280 279 282 283 284 284 284 284 283 283 283 284 284
Wind_Speed
2 2 3 5 6 5 5 4 11 11 12 13 13 13 13 14 15 14 14 14 13 14 14 15 15 14 14 14 14 14 14 14 14 14 13 14 14 14 14 14 14 14 15 14 14 14 13 13 12 12 12 12 12 12 11 11 10 9 9 9 8 8 9 9 8 8 8 9 10 10 10 10 9 10 9 10 9 2 5 2 3 1 2 5 7
1 2 2 1 2 4 4 8 10 11 12 13 14 14 14 14 15 15 14 14 14 15 14 14 14 14 14 14 15 15 15 15 14 14 13 13 13 13 13 13 13 13 14 13 13 14 13 13 13 13 13 13 12 11 10 10 9 8 8 9 9 9 9 9 8 8 9 10 10 10 10 10 11 11 12 12 11 3 5 3 0 1 1 6 8
2 3 2 0 1 1 4 10 9 12 13 14 14 14 14 15 15 15 15 15 15 14 14 14 14 14 14 15 15 15 15 14 14 14 13 13 13 12 12 12 12 12 12 12 12 12 12 12 12 12 12 12 12 12 10 9 8 9 9 9 10 10 10 10 10 10 10 10 10 10 10 10 12 12 13 13 11 4 4 1 3 6 2 8 7
2 2 2 1 2 4 4 10 11 12 13 14 14 14 15 15 15 15 15 14 14 14 14 14 14 14 14 14 14 14 13 13 13 13 13 13 12 12 12 12 12 11 11 11 11 11 11 11 10 10 10 10 9 10 10 10 9 10 10 10 9 9 9 10 10 10 11 11 11 10 3 4 7 10 10 8 8 3 3 1 5 7 7 7 7
2 1 1 2 3 3 12 11 10 12 13 14 14 14 15 15 16 16 15 15 14 14 14 14 15 14 14 13 13 13 13 12 12 11 11 11 11 11 11 11 10 11 11 10 11 11 11 10 10 10 10 9 9 9 9 7 6 5 7 7 7 6 7 9 9 10 10 11 12 8 3 3 4 9 13 7 5 5 2 5 6 5 7 7 9
3 0 2 2 3 7 10 9 10 12 13 13 14 15 15 15 15 15 15 15 14 14 14 14 14 13 13 13 12 12 12 12 11 11 10 10 9 9 10 9 9 9 9 8 8 9 10 10 9 9 9 8 8 7 6 8 9 10 9 9 5 4 4 6 9 9 10 11 10 5 5 3 3 4 11 10 10 5 5 8 9 10 8 8 7
6 4 4 5 5 6 8 10 12 13 14 13 12 14 15 15 15 15 15 15 14 14 14 14 13 13 13 12 12 12 12 12 13 12 13 13 12 12 11 11 12 12 12 13 14 13 13 12 12 12 12 13 14 14 13 10 9 8 9 9 10 8 3 5 7 8 9 6 4 4 5 5 4 3 8 11 11 6 8 10 10 7 8 11 12
9 6 6 6 5 6 11 12 12 12 13 13 14 15 15 16 15 15 15 15 14 13 13 13 13 13 13 13 14 14 14 13 12 12 11 11 11 12 13 12 13 12 13 13 13 13 12 12 12 12 13 12 12 12 12 12 12 13 12 13 13 12 10 7 8 9 10 4 3 4 5 4 5 3 8 10 11 10 10 11 11 11 11 11 12
9 7 7 6 6 10 8 11 12 13 15 13 15 16 15 15 15 14 14 13 13 14 14 14 14 13 13 14 14 14 15 15 15 15 14 15 14 13 13 13 13 13 13 12 12 13 13 13 13 13 13 13 13 13 12 12 11 10 11 11 11 11 10 9 10 11 5 3 4 4 4 5 5 4 7 10 10 9 9 8 7 10 10 10 11
8 8 8 7 7 11 9 11 13 14 14 15 16 15 15 14 14 14 14 14 15 14 14 15 15 15 15 15 15 15 15 15 16 15 15 15 15 14 14 15 14 14 14 14 14 14 14 14 14 14 14 15 15 14 15 15 14 13 12 11 9 9 8 8 9 8 4 4 4 4 4 7 5 5 7 11 10 6 8 7 7 7 6 10 12
9 7 7 9 12 15 15 13 14 15 16 17 17 16 16 15 15 15 15 15 15 16 16 16 16 16 15 15 15 15 16 16 16 16 15 15 14 14 14 14 14 14 14 14 14 14 14 14 14 15 15 15 15 15 15 15 14 13 13 12 11 10 9 8 8 3 4 5 5 4 4 9 4 4 10 13 12 10 6 7 10 11 12 12 13
9 9 9 9 13 17 17 17 17 17 17 17 16 15 16 15 15 16 16 16 16 16 15 15 15 15 15 15 15 16 17 17 16 16 16 15 14 14 14 13 13 14 14 14 14 14 14 14 15 15 15 15 15 15 14 14 14 14 14 14 13 11 10 9 5 5 4 5 5 5 4 5 5 6 13 14 13 13 12 11 12 13 13 14 14
9 9 8 9 11 17 18 18 18 18 19 17 17 17 16 17 17 17 16 16 16 15 15 14 14 14 14 15 15 15 16 17 17 17 16 16 16 15 14 14 14 14 13 13 13 14 13 13 13 13 14 15 15 16 15 14 14 15 15 15 15 14 12 12 5 5 5 5 5 5 5 5 4 10 13 13 14 14 14 12 12 14 15 15 14
9 8 8 8 10 17 19 18 18 19 19 19 19 18 18 17 17 17 17 16 16 15 15 14 13 12 14 15 15 15 16 17 17 17 17 17 16 17 17 16 15 13 13 14 14 15 15 16 15 16 16 17 17 17 17 17 18 17 17 17 17 16 13 9 7 5 5 6 6 6 5 5 5 12 13 13 14 16 13 13 14 14 15 16 17
11 11 9 9 9 10 18 19 18 19 19 19 18 17 17 17 15 15 15 16 15 15 15 16 15 13 15 16 15 15 14 16 17 17 17 17 17 17 17 15 16 16 16 15 16 17 18 19 19 19 19 19 19 19 18 19 19 19 20 20 19 17 15 6 6 5 6 6 6 6 7 5 10 14 14 14 13 14 13 13 15 14 15 17 17
10 9 10 9 8 8 8 13 17 17 17 17 17 16 17 16 16 16 16 16 16 16 16 16 16 16 17 16 16 16 16 16 17 17 17 17 17 17 17 16 18 18 19 19 19 19 19 18 18 18 19 19 19 19 19 19 19 20 19 19 19 18 16 10 6 6 6 6 6 5 6 6 14 16 16 14 12 13 15 14 15 16 17 17 17
10 9 10 9 8 8 8 8 10 14 13 16 17 17 17 17 17 16 16 16 16 16 16 17 17 17 16 16 16 16 17 16 17 18 18 18 17 17 18 18 18 18 19 19 19 19 19 19 19 19 19 19 20 19 19 19 19 19 19 19 18 18 16 13 7 7 7 7 6 6 6 6 11 16 16 16 15 15 15 14 15 16 17 17 17
8 9 10 8 8 8 8 7 8 8 8 10 13 17 17 17 17 16 16 16 16 16 16 16 17 16 16 16 17 17 17 17 17 18 19 18 18 18 19 19 19 19 19 20 20 19 20 19 19 19 20 20 20 20 20 20 20 20 19 19 18 17 16 13 7 7 8 8 7 5 5 8 14 15 15 15 15 15 15 16 16 15 17 18 17
9 9 8 9 8 7 7 7 7 8 8 7 7 11 17 16 16 16 16 17 17 16 15 16 17 16 17 16 16 17 17 18 18 18 19 19 19 18 19 19 19 20 20 20 20 20 20 20 20 20 20 21 20 20 20 20 20 20 20 19 18 17 16 10 8 8 8 7 6 6 6 13 16 15 16 16 16 16 16 15 15 15 15 15 17
8 9 8 8 7 8 6 7 7 8 7 7 8 8 12 15 15 16 16 17 16 15 16 15 16 15 15 16 16 12 12 13 19 14 18 19 19 16 19 20 20 20 20 20 21 21 21 20 20 20 21 21 20 20 20 20 20 20 20 20 18 16 9 7 9 9 8 7 7 5 10 17 18 16 16 16 16 15 16 16 15 15 15 15 15
6 8 8 7 8 8 8 6 7 8 7 7 7 7 9 13 10 14 16 16 15 15 16 14 13 12 11 13 12 9 8 8 10 9 14 12 17 18 18 19 20 20 20 20 20 21 21 21 21 21 20 21 19 19 19 19 19 20 20 19 17 10 9 9 9 8 8 7 7 7 15 16 17 18 17 16 16 16 16 16 16 16 15 15 15
6 6 8 8 7 8 8 8 7 8 8 6 5 6 6 9 9 8 8 9 12 12 11 10 10 8 10 8 8 7 7 7 8 10 8 10 11 17 17 18 19 19 19 20 20 20 20 20 21 21 21 19 19 10 10 13 18 19 19 18 11 9 9 9 9 8 9 8 7 9 17 16 16 16 16 17 17 17 17 16 16 16 15 15 15
7 6 6 8 7 7 7 8 8 7 7 7 5 5 7 6 7 7 6 9 9 9 8 9 8 8 8 7 7 7 7 7 8 9 8 12 11 16 17 17 18 19 18 18 19 19 19 19 20 19 19 18 10 8 8 8 8 15 13 10 9 9 9 10 8 8 8 9 8 13 15 16 17 17 16 16 16 16 16 15 16 16 16 16 16
6 5 5 5 7 6 7 6 6 6 6 6 5 6 6 5 6 6 7 7 7 7 8 8 8 8 7 7 6 6 6 6 9 12 10 7 8 11 14 14 14 15 17 10 13 14 16 15 16 16 11 7 7 8 7 7 7 7 7 8 7 8 9 8 8 8 8 9 9 20 18 17 18 18 16 16 16 15 15 15 15 15 15 16 15
3 3 4 6 6 5 5 6 5 5 6 6 6 6 5 5 6 6 6 6 6 6 6 7 7 7 7 6 5 5 5 6 6 7 7 7 7 7 8 8 7 8 11 8 8 8 9 8 8 9 7 8 8 8 8 8 7 7 7 7 7 8 8 8 8 7 8 8 9 19 21 21 20 18 17 16 16 15 15 15 15 15 15 15 15
4 5 5 5 6 6 5 4 5 5 6 6 6 5 5 6 6 5 6 6 5 6 6 6 7 7 6 6 6 6 7 7 6 6 7 6 7 7 7 6 7 7 6 6 7 7 7 7 7 8 8 7 7 7 7 8 8 8 7 7 7 8 8 8 8 7 7 8 9 18 19 20 21 20 17 16 15 15 15 15 15 15 15 15 15
4 6 4 5 6 6 5 4 6 5 6 5 5 5 6 5 5 5 6 6 5 6 6 6 6 6 6 6 6 6 6 6 6 6 7 6 7 6 6 6 6 7 6 6 6 6 6 7 6 7 6 7 7 6 7 7 7 8 8 7 7 8 8 8 8 8 8 7 9 18 19 20 20 21 19 17 16 15 15 15 16 16 15 16 16
4 5 4 4 4 5 4 4 5 5 5 4 5 5 5 5 5 5 6 5 5 6 5 5 5 6 6 6 5 5 5 6 6 6 6 6 6 6 5 6 6 6 6 5 6 6 6 6 6 6 7 6 7 7 6 6 7 6 7 7 7 7 7 8 8 8 7 7 8 12 18 20 20 21 21 19 17 15 15 15 16 16 16 16 16
5 5 4 5 5 4 4 5 4 5 4 3 5 4 4 5 5 5 6 4 5 5 4 4 5 5 6 6 6 7 6 6 6 6 5 6 6 6 6 6 6 6 6 6 5 6 6 6 7 7 6 7 7 8 7 7 6 6 7 8 8 8 8 8 8 8 8 8 8 9 17 19 21 21 21 21 18 16 14 14 15 15 16 16 17
3 4 4 4 4 4 5 4 4 4 3 4 4 5 5 6 5 5 5 5 5 5 4 6 6 6 7 6 6 5 6 5 5 5 5 5 5 5 5 5 5 5 5 6 5 5 6 6 6 6 7 7 7 7 7 8 8 7 7 8 8 8 8 8 9 8 8 8 7 8 13 17 20 21 20 21 19 15 14 13 14 14 15 16 17
3 4 4 4 3 4 4 4 4 4 4 5 4 5 4 5 4 4 5 5 4 5 6 5 6 5 5 5 5 4 4 4 4 3 3 3 3 4 4 4 5 5 5 5 5 4 4 4 5 5 5 6 6 6 6 7 7 7 7 8 8 8 9 8 8 9 9 8 7 7 8 14 18 20 21 21 19 15 12 12 14 14 15 16 17
3 3 3 3 4 3 3 4 4 4 4 4 3 4 4 4 3 4 5 4 4 5 5 5 4 4 3 4 4 4 3 3 3 3 3 4 4 5 4 5 5 5 5 4 5 4 4 4 4 4 4 4 5 5 5 5 7 7 7 8 8 8 9 9 9 10 10 8 8 7 7 8 13 18 19 21 19 13 11 13 15 16 16 17 18
2 1 2 3 3 3 3 3 3 4 4 4 3 3 3 3 4 4 3 3 5 4 6 4 4 3 3 3 3 4 4 4 5 4 4 4 4 4 5 5 5 5 5 4 5 5 5 6 6 5 6 5 6 6 5 6 6 7 6 7 7 8 8 8 9 10 10 9 8 7 7 7 7 12 16 19 16 12 12 14 15 16 17 19 20
2 2 2 3 2 2 2 2 3 4 3 3 3 3 3 3 3 4 3 4 4 4 4 3 3 3 3 4 4 4 4 4 4 4 4 4 4 4 4 5 5 4 5 5 6 5 6 6 6 6 6 6 7 7 6 7 7 6 6 6 7 8 8 8 9 9 9 8 8 7 7 7 7 7 8 13 13 11 12 14 15 17 19 20 21
2 2 2 1 2 3 2 2 1 3 3 3 3 2 2 3 4 3 3 4 3 4 2 2 3 3 3 4 3 3 3 3 3 3 4 4 5 5 5 6 6 5 6 5 5 5 5 6 5 6 6 6 6 7 6 7 7 8 8 7 8 9 8 8 9 9 9 8 7 7 7 7 6 6 6 6 7 9 12 14 17 19 20 21 21
1 0 1 1 3 2 2 2 2 2 2 2 2 1 1 2 2 3 3 3 3 3 2 2 2 2 3 3 3 2 2 3 3 3 4 4 4 5 5 6 5 6 6 5 4 6 6 6 7 5 7 7 7 8 7 7 7 8 7 8 8 9 8 8 9 10 8 7 7 7 6 7 6 6 6 6 6 7 12 15 16 18 18 19 20
0 1 1 1 2 2 2 3 3 3 3 4 4 3 3 3 3 2 1 2 3 2 1 1 2 3 2 3 3 2 2 3 3 2 3 4 5 5 5 5 5 5 6 6 6 6 4 5 6 6 4 6 7 8 8 7 8 7 7 8 8 8 8 9 10 9 6 6 7 6 7 6 6 7 7 7 7 6 9 13 15 16 17 19 19
1 0 0 1 1 1 1 2 3 3 3 3 3 3 2 2 3 2 1 2 2 2 1 1 1 1 2 3 3 3 3 3 4 3 3 4 4 4 6 5 4 5 6 6 6 5 5 4 6 6 6 6 7 8 9 8 7 7 8 9 9 6 8 9 10 10 6 7 6 7 7 6 6 7 7 7 7 6 6 8 13 14 15 16 20
0 0 2 1 2 2 3 4 4 4 4 4 3 3 3 3 2 3 2 3 4 3 3 2 1 2 2 3 3 4 4 4 4 4 4 5 5 5 5 5 4 5 5 6 6 6 5 5 6 7 5 6 7 8 9 9 8 8 9 9 7 8 8 8 10 10 6 5 6 6 6 8 8 8 7 7 6 6 6 7 7 8 9 15 17
1 1 1 2 2 2 3 3 4 3 3 3 4 4 3 3 2 4 3 3 4 3 4 2 2 3 4 4 4 4 4 4 4 4 4 5 5 6 6 6 5 4 5 6 7 6 7 7 7 6 8 6 6 8 8 8 8 9 10 7 7 9 8 9 9 11 6 5 5 4 7 10 9 8 8 7 7 7 7 8 8 8 8 11 16
1 1 1 1 1 0 2 3 2 2 3 3 2 2 2 3 2 3 1 3 3 3 3 3 3 4 4 4 4 5 5 5 5 4 6 6 6 6 5 6 5 4 5 7 6 7 6 5 5 4 6 6 5 5 7 6 9 10 6 9 9 7 9 8 10 10 6 6 4 7 10 8 8 8 8 7 8 8 8 9 8 8 8 8 9
1 0 1 0 0 0 2 0 1 2 2 1 0 0 0 0 0 4 3 3 4 4 4 5 4 5 4 5 5 5 5 5 5 5 5 5 6 7 6 7 7 6 6 6 5 6 7 7 5 6 3 5 5 5 8 7 7 9 16 14 6 5 7 8 10 5 5 5 7 11 9 7 8 8 7 7 8 8 9 9 8 8 8 8 8
2 2 1 1 0 0 1 0 0 0 0 1 0 0 0 1 0 2 1 4 3 4 3 5 4 6 6 6 5 5 5 6 6 5 5 6 6 6 7 7 7 6 6 7 7 8 7 7 6 5 8 3 5 5 6 3 8 9 9 11 12 16 2 4 3 3 5 9 10 9 8 6 8 7 8 7 7 8 7 8 7 7 7 8 8
3 2 2 2 1 1 2 1 1 1 2 2 0 1 2 1 1 3 3 3 5 3 3 4 4 4 6 4 4 4 5 6 6 5 5 6 6 7 7 7 8 7 7 7 7 9 8 8 7 6 4 9 3 4 2 4 3 9 12 7 13 10 16 1 8 10 8 12 9 7 4 7 8 8 6 7 8 7 7 6 6 7 8 8 8
4 4 4 4 3 4 4 3 3 3 3 1 1 1 1 3 4 4 2 3 1 3 5 6 3 3 5 5 7 4 5 6 6 6 5 6 6 7 7 7 7 8 6 7 7 8 7 7 7 6 6 7 9 3 3 2 5 2 5 10 9 6 6 14 17 16 4 4 4 7 9 7 8 6 6 7 7 6 6 6 7 6 7 7 7
5 5 4 5 4 4 4 4 3 3 3 3 3 1 1 1 3 4 6 4 6 6 6 5 7 7 7 6 8 6 5 5 6 6 6 5 6 7 7 7 7 7 7 7 7 7 8 8 7 5 7 6 7 8 6 4 4 4 5 6 6 10 16 16 10 16 4 5 11 5 7 8 5 8 9 7 6 8 9 9 8 9 9 8 8
7 4 4 5 5 5 4 4 4 4 3 3 2 2 2 2 3 4 4 4 5 6 3 4 4 6 5 7 7 8 6 5 6 6 6 6 6 7 7 7 7 7 7 6 7 7 7 6 6 6 7 6 5 8 9 8 5 4 5 6 7 8 10 11 14 15 20 11 7 6 5 4 8 8 5 7 11 11 9 9 11 10 8 9 9
6 4 5 5 6 6 5 5 4 4 4 4 3 3 4 4 4 5 4 5 6 8 7 7 4 4 6 8 6 7 7 6 6 6 6 6 6 7 7 6 6 7 6 6 6 6 6 6 5 6 6 5 6 7 8 6 7 7 3 6 6 7 7 9 10 11 15 20 19 2 6 5 3 4 8 12 11 10 12 11 9 9 10 10 10
5 6 7 6 6 5 4 4 4 4 5 4 4 4 5 5 6 5 6 6 5 7 6 5 6 5 5 7 6 7 7 7 6 5 6 6 6 6 6 6 6 6 5 6 5 5 6 6 6 7 6 7 5 6 6 7 6 7 8 7 6 7 8 8 9 9 11 15 20 19 14 9 9 8 11 9 9 9 9 9 10 11 10 10 10
7 5 5 4 4 4 4 4 6 5 5 5 4 5 5 4 5 5 6 8 4 6 3 6 6 4 5 7 6 6 6 6 7 6 6 6 6 5 5 5 5 5 5 5 5 5 5 5 6 5 6 6 6 6 6 7 6 6 6 8 8 8 8 7 5 7 9 10 15 21 18 17 16 6 5 8 11 8 9 10 9 9 9 9 10
5 5 5 4 4 4 4 5 7 6 5 6 5 7 5 4 6 6 6 7 8 5 6 7 6 5 5 6 6 6 6 6 6 6 5 5 5 5 5 5 5 4 5 5 5 5 6 5 6 6 6 7 7 7 7 6 6 7 7 7 8 8 9 10 10 9 10 11 13 15 14 13 15 20 10 6 7 10 10 8 9 8 8 8 8
Wind_Direction
24 16 6 230 172 81 103 71 98 97 93 89 87 85 87 83 84 88 85 83 83 81 77 72 72 72 70 69 66 64 61 58 56 55 53 53 51 49 49 48 46 45 44 39 36 36 39 42 40 45 52 51 47 43 42 41 36 27 23 20 19 10 10 5 5 356 352 352 341 331 334 330 325 318 302 308 306 110 121 90 19 42 3 312 300
44 13 178 312 7 40 32 89 89 94 91 88 88 89 87 89 88 85 87 86 81 77 77 78 76 74 70 67 65 62 60 57 56 55 55 55 55 54 53 51 50 48 46 42 40 38 36 33 33 35 38 40 39 38 35 31 26 15 7 7 6 360 3 355 350 343 337 338 339 337 334 330 324 313 306 296 299 153 129 153 248 319 245 297 293
20 39 337 321 103 339 281 103 99 95 90 89 90 92 94 91 89 90 86 82 81 80 79 78 76 73 70 67 64 61 59 57 55 52 52 52 52 52 52 50 47 48 45 43 40 40 38 36 35 33 31 27 26 25 24 20 10 4 2 2 3 2 1 352 347 341 336 335 339 339 339 331 325 321 312 303 293 179 139 223 326 307 284 293 298
65 44 321 104 63 334 349 96 92 89 90 94 94 94 95 95 91 86 84 83 82 80 78 75 72 69 67 67 65 62 61 61 58 55 52 51 49 48 45 44 40 38 40 38 35 33 35 33 27 30 30 29 28 20 15 8 5 1 359 359 357 357 357 350 346 344 341 339 339 345 351 330 319 314 325 299 274 194 120 232 295 301 298 301 295
47 17 309 358 355 67 91 89 91 100 96 95 97 97 96 92 89 86 83 82 80 78 75 71 68 66 65 62 59 58 54 51 53 53 53 51 49 45 44 42 41 34 32 29 28 27 26 24 20 19 17 17 18 18 17 10 357 348 358 357 349 353 355 353 349 344 341 341 341 349 340 319 313 326 340 329 306 85 167 271 267 291 298 292 299
138 81 340 353 69 73 86 103 110 99 102 96 96 96 91 88 87 85 82 80 78 75 71 67 64 62 59 57 51 50 51 49 50 49 47 45 47 43 38 32 29 31 28 29 27 21 19 18 18 11 10 9 8 11 14 3 350 355 351 348 346 312 346 351 347 341 339 339 344 340 329 307 299 315 326 329 324 141 249 246 297 315 310 324 323
86 57 52 55 53 72 98 95 89 98 93 96 95 89 85 82 80 79 79 76 74 72 69 66 63 60 57 54 52 49 46 44 39 35 31 31 27 27 26 25 20 19 15 15 18 15 14 11 7 3 358 356 359 355 351 349 346 337 339 336 337 351 322 339 337 335 332 344 330 326 316 307 287 288 302 307 311 294 271 297 307 319 321 308 318
61 49 47 54 54 56 78 88 93 94 99 95 92 86 82 76 74 74 74 72 71 72 74 72 66 60 53 50 48 44 41 39 41 38 38 42 38 36 32 28 29 27 24 20 21 20 17 15 11 11 4 3 0 355 347 342 341 339 337 338 338 347 342 324 323 325 327 333 315 314 310 299 284 299 303 321 299 291 299 305 352 338 316 318 323
61 48 48 49 53 70 91 101 102 94 91 94 86 80 78 77 75 77 76 75 72 67 63 59 57 57 58 57 56 53 47 43 41 40 37 36 36 38 39 37 38 38 36 32 29 25 24 22 21 19 13 11 10 5 359 352 345 338 334 330 330 326 328 327 321 314 323 310 310 305 304 298 289 286 291 308 316 297 303 337 336 316 313 308 304
61 59 55 49 51 57 64 76 87 92 92 85 81 78 78 79 79 77 72 67 62 62 63 63 63 61 59 56 53 50 46 43 40 37 35 34 33 34 35 36 35 35 32 30 29 26 24 25 24 20 15 12 10 6 2 356 351 348 349 349 339 335 328 315 304 306 306 302 301 300 291 300 292 277 274 294 319 309 290 284 273 263 259 286 291
53 58 57 58 50 50 53 63 72 78 73 71 70 69 67 66 66 62 64 62 63 63 62 61 60 59 58 56 54 51 47 43 39 36 34 32 30 30 32 33 31 29 27 25 23 21 18 18 17 14 11 7 4 1 0 357 353 353 352 351 349 343 336 325 323 307 299 299 302 301 296 307 302 286 270 279 301 308 304 293 298 298 302 294 288
60 58 55 54 44 39 39 46 56 59 64 68 67 67 66 64 61 61 59 58 57 58 59 58 57 57 59 59 57 53 48 44 39 37 34 31 28 26 25 25 24 20 18 17 17 17 12 10 9 8 4 1 359 356 357 356 355 352 350 347 344 341 335 327 320 308 300 296 298 294 293 296 287 281 286 273 283 302 311 307 303 300 298 300 300
67 57 55 56 51 42 43 44 44 48 52 58 62 63 63 61 57 57 57 56 55 54 52 49 47 47 50 57 57 56 52 46 42 38 35 31 26 24 25 24 23 18 15 15 16 16 11 7 6 5 0 358 356 356 356 356 350 347 346 344 340 337 334 328 323 313 301 296 290 292 291 285 281 287 295 278 276 305 304 307 303 304 302 296 298
32 37 44 49 56 50 48 49 48 49 53 53 56 59 58 57 53 50 47 48 48 46 45 43 45 47 51 58 59 57 53 49 43 40 37 32 29 24 24 23 19 17 14 20 15 17 13 14 13 11 9 8 9 12 13 13 9 4 357 351 345 335 332 332 324 316 307 301 297 291 287 288 280 284 290 295 294 290 300 305 301 307 312 312 307
47 41 36 38 46 50 51 47 49 51 52 52 51 54 56 56 56 56 53 49 47 45 45 48 51 55 60 58 56 53 51 50 45 42 38 34 30 27 25 23 24 25 30 28 25 23 22 21 20 20 19 19 18 15 13 14 14 14 12 8 359 347 337 330 327 319 311 308 304 305 301 296 288 292 306 304 299 299 300 300 309 313 305 305 305
52 45 46 43 43 45 46 45 43 45 50 53 55 56 57 56 53 54 54 50 45 42 42 45 49 59 61 53 52 52 52 51 46 43 40 35 32 28 26 28 29 29 31 30 28 27 25 22 21 21 21 20 18 17 16 15 14 12 10 7 6 4 359 354 332 327 318 310 305 301 301 298 300 303 312 316 311 302 309 316 308 305 308 310 311
44 41 48 44 45 43 43 41 42 42 39 46 51 52 54 53 50 48 50 49 45 43 41 42 43 49 53 52 50 51 51 49 47 43 40 36 33 30 27 30 32 30 32 31 29 28 27 25 23 23 23 22 21 20 18 17 16 14 11 8 5 4 2 1 349 339 331 321 312 308 299 297 297 311 321 322 320 315 313 311 314 320 324 324 323
39 39 42 39 37 38 43 43 42 40 40 36 34 42 47 50 50 48 48 48 45 42 41 41 41 43 49 49 47 47 47 45 43 42 39 36 32 30 29 30 33 33 33 32 29 28 27 26 25 24 23 22 20 19 17 16 14 13 11 7 4 1 359 0 354 342 336 329 325 311 309 302 323 329 330 330 328 327 324 322 325 330 335 335 335
38 38 37 38 32 30 39 44 44 44 42 40 38 35 42 47 48 47 47 46 43 38 38 39 39 39 43 47 45 43 42 43 41 40 38 34 33 29 30 30 33 34 34 32 29 27 27 26 25 24 23 21 18 16 15 14 12 11 9 6 2 0 360 0 354 340 335 334 332 330 309 331 341 340 338 336 333 329 326 326 330 333 334 333 337
40 34 33 32 31 36 30 38 43 43 44 43 39 39 39 40 41 42 45 44 40 37 36 37 36 36 37 42 44 41 38 38 42 37 37 34 31 31 31 32 33 34 33 31 30 28 26 25 23 22 21 19 16 14 12 11 9 9 8 5 3 0 1 355 348 344 339 336 337 328 335 345 343 346 346 342 342 342 342 340 335 333 338 335 337
35 34 32 24 28 32 31 36 43 44 42 43 38 36 38 39 32 35 39 40 40 36 37 34 35 30 32 37 39 39 36 37 38 38 36 31 32 32 32 32 33 33 31 29 28 27 26 24 23 20 19 17 15 13 11 9 7 7 6 6 4 3 356 352 349 345 342 336 334 325 343 346 345 345 344 345 344 346 348 347 344 344 344 340 335
32 30 28 28 27 29 30 36 42 40 41 41 38 37 34 37 34 31 34 33 37 36 32 34 33 33 29 34 39 38 36 37 38 38 35 29 28 32 32 32 31 30 28 27 26 24 22 21 21 19 16 14 12 9 5 4 5 5 4 4 6 360 354 352 349 346 343 338 337 334 346 348 346 347 345 345 345 346 348 348 348 350 351 350 346
38 30 30 30 28 31 33 37 36 35 40 41 38 36 37 36 35 35 34 36 35 36 33 32 31 31 34 37 39 38 38 36 39 42 39 31 28 29 29 29 28 27 25 24 23 21 20 18 17 17 15 12 10 6 1 360 357 0 2 3 360 356 351 351 350 346 343 339 336 334 345 347 346 344 343 344 344 347 349 349 351 353 353 352 352
44 36 37 30 29 30 32 34 35 33 41 41 39 40 35 36 39 35 36 36 35 35 34 33 30 29 32 36 36 37 39 40 39 36 34 29 23 26 25 24 23 24 24 22 18 16 18 15 13 13 11 9 6 2 359 354 356 356 356 359 356 352 352 348 345 341 339 340 338 334 336 340 340 339 337 339 342 346 348 349 351 352 353 351 350
33 45 42 38 28 31 31 36 32 39 47 41 45 41 29 41 39 37 40 37 37 37 35 34 32 29 28 31 30 37 36 36 35 34 32 26 26 24 21 20 17 19 17 21 17 10 12 8 6 7 9 5 4 1 357 355 353 350 353 352 351 349 348 347 342 339 336 335 331 337 339 335 332 332 331 334 337 342 343 345 346 347 349 350 348
41 51 41 35 30 30 32 32 40 42 46 45 44 42 39 43 41 37 46 42 41 43 38 35 32 28 26 25 29 34 31 32 29 31 32 25 27 22 19 15 16 16 12 15 15 13 11 9 5 5 1 1 1 357 357 356 348 347 345 346 348 347 345 341 340 334 331 327 325 331 334 335 332 324 325 328 330 335 340 340 340 340 342 344 346
45 50 35 33 27 26 22 31 48 45 44 41 43 43 44 41 45 47 53 44 39 46 38 34 32 29 27 25 36 31 33 32 31 28 31 24 28 20 15 12 14 11 3 13 9 9 11 8 4 359 354 356 354 352 351 351 350 344 342 340 341 342 341 338 335 333 327 323 319 324 328 330 331 327 319 318 321 326 331 335 336 335 335 337 337
56 48 33 36 30 28 24 32 45 49 42 36 49 47 41 46 45 46 53 52 51 49 43 37 35 34 31 28 36 43 37 33 30 29 21 24 26 16 11 13 11 8 355 10 7 3 7 8 2 356 357 354 351 348 348 345 343 344 340 336 332 334 335 330 327 325 322 317 317 317 321 325 326 325 320 310 312 316 321 329 333 332 332 334 334
54 44 27 30 24 26 30 38 44 47 44 39 55 49 43 52 46 50 51 50 57 50 49 44 41 33 33 32 31 36 31 32 30 22 16 28 16 16 14 10 6 2 359 4 9 360 2 3 2 355 353 352 349 350 347 343 341 341 341 336 332 330 329 326 323 321 318 316 315 312 318 322 323 322 322 313 304 308 312 322 328 329 329 331 332
36 41 32 20 13 22 34 37 40 49 44 54 49 51 40 53 44 48 51 52 50 49 43 43 35 35 29 25 29 40 38 33 27 15 33 19 16 9 13 4 2 355 2 360 355 1 356 354 354 354 349 345 347 343 343 339 340 340 340 336 331 328 324 323 322 319 315 314 310 310 314 318 319 319 319 317 302 301 307 314 321 322 322 325 327
38 33 29 18 8 24 29 33 33 35 43 58 50 51 47 54 47 49 50 52 47 48 48 45 40 37 29 26 32 29 37 31 28 15 21 15 10 11 6 354 1 353 352 348 339 349 341 345 338 337 338 333 331 326 334 332 330 333 335 334 328 325 322 320 317 314 314 313 314 312 312 315 316 317 317 318 306 298 305 310 314 316 316 318 321
49 35 23 18 25 16 33 31 42 39 52 53 52 55 51 52 47 47 51 48 54 55 53 47 42 35 25 30 28 31 31 30 30 16 23 10 3 4 354 2 351 344 346 340 340 334 330 320 321 323 320 318 319 324 326 332 327 325 328 328 325 323 320 319 317 314 311 312 312 311 311 311 313 313 314 316 308 299 304 308 310 311 312 313 315
19 36 23 44 24 5 39 25 39 51 59 61 61 59 53 50 51 49 43 47 53 59 57 47 41 30 31 26 24 26 32 28 17 22 10 7 359 354 353 348 338 335 340 339 337 340 341 344 340 338 333 337 332 329 329 323 318 315 317 314 318 315 313 313 309 308 310 311 312 312 311 311 307 309 311 312 304 302 309 312 314 314 314 313 312
28 359 25 39 14 14 26 37 38 46 55 62 68 63 52 57 61 48 49 50 47 57 55 47 40 27 30 22 21 20 23 20 22 4 13 5 356 352 338 334 326 324 328 340 344 344 342 341 337 342 336 338 331 324 331 328 320 311 311 310 309 307 308 303 301 300 301 304 308 309 309 307 308 308 308 305 299 313 327 329 325 321 317 313 311
47 29 41 344 32 21 26 38 21 46 51 49 60 74 67 70 65 59 55 66 60 65 52 54 43 26 26 22 14 14 11 13 12 16 356 4 353 342 336 319 321 325 331 333 338 331 340 330 331 341 327 326 322 317 322 314 313 315 314 315 312 310 307 303 300 297 298 300 303 304 305 305 306 313 312 311 317 324 325 323 319 316 315 314 313
72 84 38 10 26 360 36 51 6 29 47 71 57 55 63 76 69 75 66 67 73 73 76 70 63 34 33 11 360 353 10 353 357 9 356 345 340 328 314 316 323 329 328 325 338 339 336 334 328 338 335 323 325 318 316 311 307 305 309 310 306 306 305 302 297 295 298 304 300 301 301 301 305 311 318 314 307 308 312 314 314 315 316 315 316
243 71 76 47 28 5 20 47 23 0 360 5 13 18 15 24 38 41 64 58 75 81 57 81 44 32 9 4 331 335 327 334 335 343 350 332 327 322 310 314 320 328 325 325 326 323 331 325 315 319 320 308 312 306 307 305 304 301 302 302 300 301 303 304 298 293 304 300 300 300 302 301 306 309 310 308 308 305 305 308 311 314 315 316 315
260 193 145 115 97 341 12 39 26 26 32 26 21 8 8 35 17 16 23 27 352 353 10 50 25 325 350 333 309 310 307 309 318 322 326 304 297 299 303 305 314 320 322 320 309 311 309 312 311 307 315 313 307 307 305 303 302 303 301 300 297 290 296 297 294 296 306 298 298 298 293 295 302 302 306 307 306 303 305 307 310 311 314 315 315
332 354 53 43 53 25 34 28 28 16 17 22 14 27 21 21 19 15 14 6 359 340 356 348 284 288 290 284 292 301 296 296 299 302 308 301 306 301 302 299 308 308 312 310 309 310 309 312 312 305 306 301 295 296 299 302 305 301 298 291 282 286 284 279 287 291 292 282 287 292 306 305 309 308 307 304 300 302 301 309 313 313 309 309 306
68 66 54 43 45 34 34 28 22 7 19 30 19 17 31 28 19 356 7 349 343 337 323 286 299 277 276 280 288 289 290 293 291 291 290 291 294 294 294 299 300 305 303 306 305 307 306 310 305 309 306 304 294 294 296 304 300 295 290 280 271 280 269 269 278 282 289 288 288 301 310 310 306 306 308 306 307 303 308 309 308 306 307 306 304
39 69 60 31 50 83 71 36 341 19 55 34 23 42 19 347 20 26 311 279 295 305 296 298 309 276 282 284 288 286 292 294 288 290 288 289 286 287 290 292 289 283 282 282 281 288 288 287 290 297 301 304 302 292 297 312 315 306 278 294 295 256 261 265 263 272 295 289 277 307 300 294 291 294 295 298 301 301 302 300 297 297 297 298 301
271 84 137 261 328 66 95 331 354 37 72 115 138 125 170 134 227 262 262 277 300 317 309 317 306 302 294 290 288 291 291 286 287 286 283 278 283 289 289 287 291 286 276 275 282 284 291 296 300 307 258 302 294 306 306 334 319 325 327 323 297 269 253 252 250 272 281 278 302 296 287 282 281 282 282 288 288 291 290 290 290 292 294 298 299
205 213 240 311 291 151 174 215 259 143 215 199 106 15 279 287 187 261 230 291 258 246 248 273 294 298 294 286 287 288 284 291 285 281 279 282 275 280 282 285 286 284 289 291 289 291 287 289 293 286 305 264 279 287 288 332 306 318 304 304 324 328 327 267 304 228 282 287 284 275 276 276 273 270 278 284 285 282 282 282 288 296 299 297 296
230 246 264 258 247 234 237 218 253 245 235 247 173 211 223 241 241 251 275 214 265 311 307 290 305 317 305 298 287 274 287 287 289 287 281 279 279 280 285 289 286 285 278 281 285 282 287 289 288 291 295 307 303 294 264 296 308 336 326 335 313 319 318 190 310 295 282 278 276 270 264 274 274 281 284 282 281 281 286 297 296 291 288 288 288
226 228 227 232 217 216 222 215 223 232 238 250 234 222 352 359 352 337 349 342 348 351 342 319 303 288 301 316 303 309 295 291 292 290 287 284 287 284 283 282 284 283 282 277 276 275 280 278 284 289 291 284 301 287 305 312 300 259 280 320 315 296 283 306 322 305 240 263 252 273 284 276 280 277 279 282 281 292 296 293 288 285 284 285 287
234 232 212 219 220 230 231 243 251 260 257 255 244 231 238 327 337 340 325 342 311 315 305 297 316 321 307 302 306 301 296 296 294 295 292 291 290 290 290 290 289 290 286 280 283 291 285 288 287 290 293 284 280 305 292 284 262 272 232 228 237 285 310 309 317 306 303 202 279 241 253 278 270 291 294 286 299 300 300 299 299 300 299 297 298
235 227 225 229 231 231 226 224 226 245 248 251 246 226 261 253 239 246 238 253 265 279 239 255 264 287 301 299 296 306 304 302 301 301 300 299 297 297 296 296 294 292 294 299 295 289 295 296 299 299 285 294 303 296 298 302 303 249 251 248 254 266 279 304 308 311 309 303 175 254 267 243 267 273 275 299 304 302 301 302 302 303 302 305 303
228 220 233 234 228 229 226 234 237 245 245 247 248 220 235 247 250 252 238 239 231 259 280 286 279 274 298 296 304 301 307 308 306 306 306 304 302 302 304 305 306 303 306 301 294 294 298 294 290 285 287 284 287 284 295 301 298 300 262 280 274 270 268 270 273 287 296 307 309 222 213 260 271 282 293 295 295 299 299 299 300 304 306 303 302
231 225 227 226 227 232 234 244 253 252 261 247 245 245 232 237 240 248 269 250 245 258 276 283 288 302 304 295 300 299 306 308 307 304 306 307 307 307 311 314 316 313 313 305 301 300 295 296 301 305 301 297 289 282 290 293 296 294 309 293 286 283 286 276 279 277 286 302 298 304 304 287 265 267 284 282 279 278 285 293 298 300 302 301 300
229 234 241 242 240 237 241 244 257 250 254 253 245 254 242 251 254 252 252 275 268 276 287 286 290 295 288 291 297 304 306 312 315 313 310 310 316 319 320 319 316 312 313 309 306 309 308 306 299 297 298 298 293 292 288 291 285 286 285 297 304 301 293 292 276 288 281 268 291 304 311 317 311 289 208 273 288 283 288 292 290 291 292 293 295
247 243 251 243 245 238 243 250 252 257 252 251 240 254 253 238 248 255 253 263 274 278 295 293 289 298 298 302 307 307 310 305 304 309 317 320 323 321 322 318 317 316 317 318 316 311 310 309 305 308 309 307 307 304 298 289 290 295 298 296 294 295 298 301 302 297 292 297 297 294 300 306 305 308 302 275 265 286 291 287 292 294 292 287 291